Location: Unspecified
(57.6483°N, 3.3184°W)
Time: 09:32:07
(UTC+00:00)

BlueWalker 3 - Pass Details

Date: 03 February 2026
Orbit: 450 x 461 km, 53.2° (Epoch: 11 February)

Event Time Altitude Azimuth Distance (km) Brightness Sun altitude
Rises 19:20:07 0° 274° (W) 2,462 7.0 -20.8°
Reaches altitude 10° 19:22:34 10° 258° (WSW) 1,586 5.6 -21.1°
Maximum altitude 19:25:21 22° 207° (SSW) 1,046 3.8 -21.5°
Enters shadow 19:26:08 20° 187° (S) 1,097 3.7 -21.6°
